SCP
0 0 0 0 0 0 0 0 0 0 0 0 0 0 1 1 1 0 0 0 0 0 0 0 0 -0 -1 -1 -1 -1 -0 -0 -0 -0 -0 -0 -0 -0 -0 0 0 0 -0 -0 -0 -0 -0 0 0
0 0 0 0 0 0 0 0 0 0 0 0 0 1 3 3 1 1 1 0 1 0 0 0 0 0 -0 -0 -1 -1 -0 -0 -0 -0 -0 -0 -0 -0 -0 -0 -0 -0 -0 -0 0 0 -0 -0 -0
0 0 0 0 0 0 0 0 0 0 0 0 0 0 2 4 3 1 0 0 1 1 1 0 -0 0 0 -0 -0 -0 -0 -0 -0 -0 -0 -0 -0 -0 0 0 0 0 0 -0 0 0 -0 -0 -0
0 0 0 0 0 0 0 0 0 0 -0 0 0 0 1 -0 0 1 0 1 1 2 1 1 0 0 0 0 0 -0 -0 -0 -0 -0 -0 -0 -0 0 0 0 0 0 0 0 -0 -0 -0 -0 -0
0 0 0 0 0 0 0 0 0 0 0 0 0 0 2 1 1 1 0 0 1 1 2 1 1 1 1 0 0 0 0 0 0 -0 -0 -0 -0 0 0 0 0 0 0 0 -0 -0 -0 -0 -0
0 0 0 0 0 0 0 -0 0 0 0 0 0 1 2 2 2 1 0 0 1 1 2 2 1 1 1 0 0 0 0 0 0 0 0 0 0 0 0 0 0 0 0 0 -0 -0 -0 -0 -0
0 0 0 0 0 0 0 0 0 0 0 0 0 0 0 2 0 0 1 0 0 1 2 2 2 1 1 1 1 0 0 0 0 0 0 0 0 0 0 0 0 0 0 0 -0 -0 -0 -0 -0
0 0 0 0 0 0 -0 0 0 0 0 0 0 0 2 1 0 1 1 1 1 1 1 2 2 2 2 1 1 1 0 0 0 0 0 0 0 0 0 0 0 0 0 0 0 -0 -0 -0 -0
0 0 0 0 0 0 0 0 0 0 0 0 0 0 0 1 1 3 3 3 3 2 2 2 2 2 2 1 1 1 1 1 1 0 0 0 0 0 0 0 0 0 0 0 0 0 -0 -0 -0
0 0 0 0 0 0 -0 0 0 0 0 0 0 0 0 0 0 2 4 3 4 3 3 3 3 2 2 2 2 1 1 1 1 1 0 0 0 0 0 0 0 0 0 0 0 0 0 0 0
0 0 0 0 0 0 0 0 0 0 0 0 0 0 0 0 0 0 0 3 4 3 3 2 2 2 1 2 2 2 1 1 1 0 0 0 0 0 0 0 0 0 0 0 0 0 0 0 0
0 0 0 0 0 0 -0 0 0 0 0 0 0 0 0 0 0 0 1 2 2 2 2 1 1 1 1 1 2 2 1 1 1 1 0 0 0 0 0 0 0 0 0 0 0 0 0 0 0
0 0 0 0 0 0 0 0 0 0 0 0 0 0 0 0 0 0 1 0 0 1 1 0 1 1 2 0 0 1 1 1 1 1 1 0 0 0 0 0 0 0 0 0 0 0 0 0 0
0 0 0 0 0 0 0 0 0 0 0 0 0 0 0 0 0 1 1 0 1 1 1 0 0 1 0 0 0 0 0 0 0 0 0 0 0 0 0 0 0 0 0 0 0 0 0 0 0
0 0 0 0 0 0 0 0 0 0 0 0 0 0 0 0 0 0 1 0 0 0 0 0 0 0 0 0 -0 1 -0 0 -0 0 0 0 0 0 0 0 0 0 0 1 1 0 0 0 0
0 0 0 0 0 0 0 -0 0 0 0 0 0 0 0 0 0 0 1 0 0 0 0 0 0 0 0 0 0 0 0 0 0 0 0 1 1 0 0 0 0 1 0 0 0 0 0 0 0
0 0 0 0 0 0 0 0 0 0 0 0 0 0 0 0 0 0 1 0 0 0 0 0 0 0 0 0 0 0 0 0 1 0 1 1 1 1 1 1 0 0 0 0 0 0 0 0 0
0 0 0 0 0 0 0 0 0 0 0 0 0 0 0 0 0 0 1 0 0 0 -0 -0 -0 -0 0 0 0 -0 0 0 0 0 0 1 1 1 0 0 0 0 0 0 0 0 0 0 0
0 0 0 0 0 0 0 0 0 -0 0 0 0 0 0 0 0 0 1 0 0 0 0 -0 -0 0 0 0 -0 -0 0 0 1 1 1 1 1 0 0 0 0 0 0 0 0 0 0 0 0
0 0 0 0 0 0 0 0 0 -0 0 0 0 0 0 0 0 0 2 2 1 0 0 0 -0 0 0 0 0 0 1 0 1 1 1 1 1 0 0 0 0 0 0 0 0 0 0 0 0
0 0 0 0 -0 -0 0 0 0 0 0 0 0 0 0 0 1 2 2 3 3 2 1 1 1 0 0 1 0 0 0 1 1 0 0 0 1 1 0 0 0 0 0 0 0 0 0 0 0
0 0 0 0 0 0 -0 0 0 0 0 0 0 0 0 1 3 3 2 1 1 0 0 0 0 0 1 1 1 0 0 0 0 0 0 0 0 0 0 0 0 0 0 0 0 0 0 0 0
0 0 0 0 0 0 0 0 0 0 0 0 0 0 1 1 1 1 0 0 0 0 0 0 0 0 0 0 0 0 0 0 0 0 0 0 0 0 0 0 0 0 0 0 0 0 0 0 0
0 0 0 0 0 0 0 0 0 0 0 0 0 0 1 1 0 0 0 0 0 0 0 0 0 0 0 0 0 0 0 0 0 0 0 0 0 0 0 0 0 0 0 0 0 0 0 0 0
-0 0 0 0 0 0 0 0 0 0 0 0 0 1 1 0 0 0 0 0 0 0 0 0 0 0 0 0 0 0 0 0 0 0 0 0 0 0 0 0 0 0 0 0 0 0 0 0 0
0 0 0 0 0 0 0 0 0 0 0 0 0 0 0 0 0 0 0 0 0 0 0 0 0 0 0 0 0 0 0 0 0 0 0 0 0 0 0 0 0 0 0 0 0 0 0 0 0
0 0 0 0 0 0 0 0 0 0 0 0 0 0 0 0 0 0 0 0 0 0 0 0 0 0 0 0 0 0 0 0 0 0 0 0 0 0 0 0 0 0 0 0 0 0 0 0 0
0 0 0 0 0 0 0 0 0 0 0 0 0 0 0 0 0 0 0 0 0 0 0 0 0 0 0 0 0 0 0 0 0 0 0 0 0 0 0 0 0 0 0 0 0 0 0 0 0
0 0 0 0 0 0 0 0 0 0 0 0 0 0 0 0 0 0 0 0 0 0 0 0 0 0 0 0 0 0 0 0 0 0 0 0 0 0 0 0 0 0 0 0 0 0 0 0 0
0 0 0 0 0 0 0 0 0 0 0 0 0 0 0 0 0 0 0 0 0 0 0 0 0 0 0 0 0 0 0 0 0 0 0 0 0 0 0 0 0 0 0 0 0 0 0 0 0
Wind_Speed_500mb
15 7 6 4 6 8 9 16 7 25 15 18 12 16 24 10 7 7 37 25 35 54 56 57 55 52 48 46 43 39 34 28 24 25 27 30 31 32 34 36 34 30 25 23 23 24 26 26 26
9 9 9 2 8 3 12 10 31 13 38 53 11 22 10 6 25 31 42 30 39 48 51 56 55 50 47 44 41 38 33 29 24 22 23 26 29 32 33 34 31 29 25 22 22 23 26 27 28
6 12 11 9 8 12 13 12 13 32 45 39 9 24 14 22 31 33 29 35 44 46 52 54 57 52 47 44 40 36 32 28 23 21 23 27 28 31 31 31 27 24 21 21 23 24 26 28 29
7 11 6 6 16 18 20 23 1 19 55 48 23 13 17 36 37 32 26 31 45 46 55 55 56 53 49 45 41 37 33 30 26 21 20 24 27 29 29 28 27 24 21 19 20 22 25 27 30
15 6 2 6 16 14 20 42 30 26 29 55 48 10 17 35 21 24 33 34 42 48 54 56 55 52 48 44 40 37 34 30 26 20 18 19 23 26 26 26 23 20 18 18 20 22 24 25 30
7 3 4 13 14 14 17 52 30 31 50 64 15 21 17 41 31 29 36 40 38 31 52 55 55 52 46 40 36 34 31 29 27 21 18 18 21 22 23 21 18 16 14 16 19 21 23 25 28
11 8 11 11 10 13 22 29 20 43 41 36 32 15 19 51 39 29 37 36 30 21 48 56 54 50 45 40 36 34 33 31 28 24 20 20 22 23 22 20 17 14 13 14 16 20 23 23 25
16 7 7 11 13 17 20 14 38 38 8 12 16 10 21 54 47 47 43 33 29 22 49 56 53 49 45 41 37 36 35 32 29 25 20 18 17 21 24 22 18 15 13 14 16 17 21 22 23
18 4 10 15 16 16 17 11 43 37 3 12 9 30 47 49 53 60 55 46 42 43 50 49 52 52 47 41 40 39 37 35 32 28 24 22 20 19 23 23 20 17 15 15 16 17 19 20 22
16 11 17 15 16 15 3 14 58 17 8 7 21 35 45 45 47 52 61 57 52 57 55 51 55 53 48 45 43 42 40 37 35 31 27 24 21 19 19 21 22 20 19 19 20 21 23 25 25
15 19 14 9 47 54 35 16 27 13 9 8 6 9 26 29 31 30 30 46 52 54 61 49 48 47 49 47 42 40 39 36 33 31 29 26 24 22 20 21 20 21 19 20 21 24 27 29 28
10 12 29 28 49 43 8 27 20 18 18 21 21 14 9 10 26 28 33 29 57 58 57 50 47 46 36 31 38 38 34 33 35 34 32 30 25 23 22 18 12 13 12 10 19 27 29 32 33
13 23 39 45 60 70 52 38 24 38 40 33 24 24 24 13 2 14 36 23 45 58 53 52 60 54 31 24 32 35 37 41 37 30 33 26 21 21 19 18 11 4 10 10 17 22 24 25 30
16 54 48 51 57 62 31 38 20 34 35 34 34 32 34 28 20 17 22 28 43 46 51 58 50 48 25 45 47 44 45 37 31 17 21 20 10 12 16 13 11 7 12 14 14 18 21 24 34
49 25 25 27 32 23 33 30 35 34 40 38 45 44 43 44 27 30 35 30 36 51 52 54 46 40 35 66 63 69 40 37 33 27 22 20 16 16 23 22 21 24 28 30 29 30 32 30 28
13 22 33 30 17 25 26 54 14 38 32 47 53 56 57 53 50 41 43 38 46 49 57 53 44 40 49 66 66 48 41 36 35 30 23 18 19 23 25 28 28 33 40 38 38 40 40 42 42
9 18 13 13 16 15 25 39 16 52 49 53 62 63 61 62 52 47 51 40 54 52 54 45 38 39 51 65 59 47 35 36 36 28 24 20 25 31 27 28 31 49 43 42 38 46 48 65 44
21 9 7 14 11 17 26 20 16 53 47 49 58 61 55 50 46 48 40 46 55 57 58 44 41 45 50 67 42 47 43 42 32 30 28 28 29 22 23 27 30 30 46 42 45 43 42 49 50
16 14 11 12 22 14 18 26 25 45 35 41 52 58 58 58 45 50 45 56 64 65 59 54 50 46 51 48 50 47 42 35 26 26 21 20 19 20 20 23 25 26 36 39 47 44 43 27 33
22 21 17 15 19 13 27 25 24 27 24 46 46 57 69 62 55 54 54 76 71 61 57 53 47 47 38 39 45 42 37 29 24 26 25 24 20 19 16 22 23 24 27 36 40 39 35 37 37
31 29 17 16 29 10 11 15 11 15 22 27 14 47 55 44 43 46 65 77 69 60 55 54 59 51 50 43 38 33 32 32 30 29 31 23 20 17 22 23 23 29 28 28 29 31 33 40 35
34 19 30 29 20 12 11 13 10 9 12 10 13 27 37 51 61 69 73 69 70 68 67 61 58 49 45 42 42 46 41 48 40 36 28 21 20 16 15 14 16 18 17 21 29 25 25 32 34
29 29 33 36 13 8 9 6 14 7 9 8 12 33 36 72 80 85 86 81 75 74 69 65 54 51 48 42 45 46 40 40 38 26 19 13 14 14 12 10 11 13 18 20 20 25 31 36 44
29 24 21 13 12 19 22 14 11 4 11 5 18 51 59 67 87 81 72 67 61 54 56 56 57 50 44 39 37 36 37 35 27 20 18 21 21 19 17 15 17 20 23 27 30 34 37 42 46
28 30 12 8 13 17 16 10 14 11 10 10 34 50 58 69 74 73 62 50 43 35 34 33 32 38 36 35 33 30 29 26 21 20 19 16 14 15 16 19 23 29 34 39 43 48 51 54 55
40 28 11 13 9 8 9 10 9 15 13 4 59 61 85 79 62 57 53 48 45 41 36 36 36 40 34 33 31 27 24 20 18 13 11 13 14 17 23 28 33 37 40 42 45 49 52 54 58
40 35 21 12 6 8 2 8 8 5 11 33 56 63 67 71 80 73 64 58 52 43 32 27 26 29 26 25 23 19 14 11 8 8 11 15 19 24 29 33 36 40 43 45 46 48 50 53 57
45 14 15 1 15 9 3 5 7 11 14 21 36 53 56 73 88 80 68 57 44 36 30 24 19 19 18 13 8 5 1 2 6 11 16 20 25 30 33 36 40 41 39 38 38 40 42 45 47
8 38 3 14 10 12 9 8 7 15 13 5 14 41 79 79 80 76 64 46 32 29 31 30 25 18 12 8 7 7 8 11 15 19 21 25 29 31 33 38 36 36 37 36 40 41 43 42 45
11 7 17 15 7 6 11 6 11 14 28 15 21 39 47 70 82 69 59 47 41 39 34 29 25 17 11 4 7 12 16 20 23 24 25 27 28 34 36 34 38 39 39 40 44 43 41 45 47
Wind_Direction_500mb
269 257 216 169 76 70 249 258 220 265 318 295 270 152 110 74 167 198 150 155 168 174 171 168 173 170 169 167 163 160 155 146 141 140 149 151 150 149 151 152 152 149 145 144 145 145 143 139 141
255 194 184 158 111 164 256 235 254 281 267 283 133 108 65 102 139 140 150 172 171 174 175 173 175 174 173 171 167 164 159 153 146 141 147 153 151 151 154 157 158 155 153 149 150 152 149 147 149
213 199 172 150 161 201 235 218 261 279 290 316 300 100 90 136 135 150 162 154 168 177 179 179 177 178 176 174 171 168 164 161 154 147 150 157 155 156 158 161 166 166 164 160 158 160 157 155 153
161 173 226 141 210 249 238 267 241 311 308 311 284 86 95 163 159 178 173 164 169 180 180 180 180 181 179 177 174 173 172 169 165 158 157 161 161 162 163 165 166 169 169 166 164 166 164 160 160
173 180 198 216 242 256 259 263 286 275 262 276 279 167 127 169 162 152 172 183 184 180 181 181 182 183 182 179 177 177 179 177 174 167 162 165 170 171 170 171 171 173 177 175 173 173 172 168 166
190 177 115 223 244 265 287 280 294 273 272 269 262 147 155 164 168 156 173 175 178 190 186 183 183 185 185 184 183 181 183 184 183 177 172 172 178 183 184 181 179 179 186 186 184 183 182 178 174
163 112 215 204 236 274 256 288 285 282 278 248 224 145 142 153 161 151 174 179 173 200 195 186 184 184 185 187 187 187 189 191 193 192 188 186 186 190 195 198 197 195 192 195 198 196 195 192 187
216 119 210 213 227 267 270 306 304 280 269 187 175 151 165 167 167 167 175 184 191 189 189 189 188 187 189 189 188 191 192 195 200 203 204 202 204 203 201 203 205 208 211 201 203 210 211 211 203
217 185 212 222 198 236 284 355 299 307 238 67 34 136 170 165 161 170 177 183 188 182 188 194 194 194 193 192 193 191 192 196 203 210 214 215 215 216 216 213 211 213 215 218 217 220 222 225 223
191 210 221 203 210 250 233 314 306 302 309 54 92 130 148 153 167 174 183 186 193 187 183 190 194 195 193 195 195 194 196 200 207 214 222 229 231 232 229 226 225 225 222 223 225 230 235 238 241
215 231 209 265 241 262 274 279 283 323 310 241 222 197 145 166 189 172 169 200 196 201 187 190 190 192 193 194 194 197 200 206 216 226 229 232 237 242 244 233 234 239 245 249 252 249 246 249 254
255 245 229 250 260 261 222 279 267 243 247 301 303 262 226 193 187 208 250 178 198 209 207 179 188 194 181 190 196 200 210 220 222 226 232 231 236 241 233 221 218 247 264 286 292 282 283 284 283
227 251 254 257 255 258 266 261 241 251 264 265 277 262 257 259 219 200 231 203 190 200 203 175 182 184 168 202 220 208 208 217 220 226 233 232 243 249 229 221 197 195 236 284 306 315 313 293 293
235 235 245 253 256 256 251 264 230 242 238 257 260 252 253 259 251 250 243 193 187 194 195 194 198 208 195 207 219 214 215 221 212 192 196 193 183 198 218 229 231 247 264 277 286 283 297 299 289
237 263 261 240 239 241 253 258 244 245 231 229 249 255 246 248 241 243 257 234 211 204 195 193 195 210 198 212 219 223 217 195 191 187 196 205 204 196 206 230 237 239 248 250 259 256 257 258 256
211 236 248 254 228 249 204 254 236 253 252 234 236 243 248 245 245 236 246 240 203 195 185 186 195 205 216 212 215 209 202 207 215 222 215 223 219 219 221 235 239 242 244 252 257 256 263 260 255
235 245 227 266 201 218 202 252 242 248 243 252 247 246 247 248 239 236 236 230 197 185 180 173 183 203 206 208 202 204 203 205 215 216 224 241 244 240 260 277 263 261 251 256 260 265 259 260 256
224 210 203 200 239 199 240 253 256 261 238 236 245 252 237 230 221 230 226 197 181 180 180 168 174 184 190 188 192 202 197 203 219 232 246 250 234 228 255 266 275 268 259 264 268 281 275 267 278
234 227 240 225 244 229 243 249 241 252 228 241 246 239 229 218 228 224 201 179 175 179 172 161 157 161 186 195 201 212 217 224 222 217 238 247 232 240 253 260 250 259 266 274 270 279 298 277 281
225 223 240 278 259 180 251 249 231 236 236 217 236 209 210 217 223 222 187 177 182 175 169 161 161 160 174 181 188 200 193 208 209 232 227 225 249 269 264 258 257 260 266 269 269 275 282 276 285
218 220 221 230 276 248 259 263 244 235 203 188 217 216 209 215 195 177 174 180 174 161 164 167 168 176 177 183 188 199 201 204 213 215 216 229 237 237 262 259 256 262 269 271 267 270 276 273 276
225 204 227 240 251 245 162 257 259 216 169 157 128 165 149 150 152 154 157 164 169 172 183 182 185 188 190 190 195 209 211 210 204 210 209 227 244 247 239 238 237 246 259 271 270 261 257 260 266
225 225 231 236 217 217 242 96 269 237 183 177 154 113 133 148 152 147 148 153 165 175 182 185 188 190 197 208 205 207 195 193 188 188 198 190 193 197 205 231 249 249 256 260 248 249 254 259 257
215 232 232 232 204 237 237 152 268 197 209 196 97 132 136 131 140 138 138 144 146 150 168 180 185 189 191 187 179 184 192 192 191 191 184 177 185 194 212 231 253 268 270 268 266 264 267 268 265
213 220 236 248 216 227 215 163 214 219 246 197 134 137 130 138 139 140 138 136 134 140 149 161 169 161 168 180 181 190 197 200 201 196 195 195 206 226 248 257 261 265 266 269 269 270 270 270 270
224 216 178 201 172 188 217 202 228 198 178 175 137 144 140 145 138 131 129 128 126 126 129 132 136 136 144 151 154 158 166 179 193 210 238 264 284 292 292 293 294 294 290 285 282 280 278 275 271
226 217 195 127 349 109 251 333 35 13 143 123 134 139 138 140 138 133 129 125 124 120 115 118 126 124 130 133 139 148 160 183 213 248 274 288 298 300 304 309 309 306 304 301 297 293 289 284 279
211 200 180 315 147 157 254 189 200 33 359 146 141 137 137 135 134 132 128 124 123 122 120 121 119 117 113 112 110 112 143 284 307 317 319 319 318 321 322 322 317 314 313 311 305 302 299 292 289
181 208 195 123 153 148 158 248 180 128 78 336 116 143 140 140 138 137 129 120 126 137 134 124 117 109 91 62 25 354 340 335 333 333 330 325 326 324 325 326 326 321 318 316 318 317 314 305 305
297 300 181 178 174 132 145 240 101 135 98 53 78 137 143 137 140 135 122 132 140 141 141 136 129 126 106 54 347 331 326 324 327 326 326 328 329 330 327 321 325 320 318 315 313 307 306 301 301
Wind_Speed_850mb
15 7 6 4 6 8 9 16 7 25 15 18 12 16 24 10 7 7 37 25 35 54 56 57 55 52 48 46 43 39 34 28 24 25 27 30 31 32 34 36 34 30 25 23 23 24 26 26 26
9 9 9 2 8 3 12 10 31 13 38 53 11 22 10 6 25 31 42 30 39 48 51 56 55 50 47 44 41 38 33 29 24 22 23 26 29 32 33 34 31 29 25 22 22 23 26 27 28
6 12 11 9 8 12 13 12 13 32 45 39 9 24 14 22 31 33 29 35 44 46 52 54 57 52 47 44 40 36 32 28 23 21 23 27 28 31 31 31 27 24 21 21 23 24 26 28 29
7 11 6 6 16 18 20 23 1 19 55 48 23 13 17 36 37 32 26 31 45 46 55 55 56 53 49 45 41 37 33 30 26 21 20 24 27 29 29 28 27 24 21 19 20 22 25 27 30
15 6 2 6 16 14 20 42 30 26 29 55 48 10 17 35 21 24 33 34 42 48 54 56 55 52 48 44 40 37 34 30 26 20 18 19 23 26 26 26 23 20 18 18 20 22 24 25 30
7 3 4 13 14 14 17 52 30 31 50 64 15 21 17 41 31 29 36 40 38 31 52 55 55 52 46 40 36 34 31 29 27 21 18 18 21 22 23 21 18 16 14 16 19 21 23 25 28
11 8 11 11 10 13 22 29 20 43 41 36 32 15 19 51 39 29 37 36 30 21 48 56 54 50 45 40 36 34 33 31 28 24 20 20 22 23 22 20 17 14 13 14 16 20 23 23 25
16 7 7 11 13 17 20 14 38 38 8 12 16 10 21 54 47 47 43 33 29 22 49 56 53 49 45 41 37 36 35 32 29 25 20 18 17 21 24 22 18 15 13 14 16 17 21 22 23
18 4 10 15 16 16 17 11 43 37 3 12 9 30 47 49 53 60 55 46 42 43 50 49 52 52 47 41 40 39 37 35 32 28 24 22 20 19 23 23 20 17 15 15 16 17 19 20 22
16 11 17 15 16 15 3 14 58 17 8 7 21 35 45 45 47 52 61 57 52 57 55 51 55 53 48 45 43 42 40 37 35 31 27 24 21 19 19 21 22 20 19 19 20 21 23 25 25
15 19 14 9 47 54 35 16 27 13 9 8 6 9 26 29 31 30 30 46 52 54 61 49 48 47 49 47 42 40 39 36 33 31 29 26 24 22 20 21 20 21 19 20 21 24 27 29 28
10 12 29 28 49 43 8 27 20 18 18 21 21 14 9 10 26 28 33 29 57 58 57 50 47 46 36 31 38 38 34 33 35 34 32 30 25 23 22 18 12 13 12 10 19 27 29 32 33
13 23 39 45 60 70 52 38 24 38 40 33 24 24 24 13 2 14 36 23 45 58 53 52 60 54 31 24 32 35 37 41 37 30 33 26 21 21 19 18 11 4 10 10 17 22 24 25 30
16 54 48 51 57 62 31 38 20 34 35 34 34 32 34 28 20 17 22 28 43 46 51 58 50 48 25 45 47 44 45 37 31 17 21 20 10 12 16 13 11 7 12 14 14 18 21 24 34
49 25 25 27 32 23 33 30 35 34 40 38 45 44 43 44 27 30 35 30 36 51 52 54 46 40 35 66 63 69 40 37 33 27 22 20 16 16 23 22 21 24 28 30 29 30 32 30 28
13 22 33 30 17 25 26 54 14 38 32 47 53 56 57 53 50 41 43 38 46 49 57 53 44 40 49 66 66 48 41 36 35 30 23 18 19 23 25 28 28 33 40 38 38 40 40 42 42
9 18 13 13 16 15 25 39 16 52 49 53 62 63 61 62 52 47 51 40 54 52 54 45 38 39 51 65 59 47 35 36 36 28 24 20 25 31 27 28 31 49 43 42 38 46 48 65 44
21 9 7 14 11 17 26 20 16 53 47 49 58 61 55 50 46 48 40 46 55 57 58 44 41 45 50 67 42 47 43 42 32 30 28 28 29 22 23 27 30 30 46 42 45 43 42 49 50
16 14 11 12 22 14 18 26 25 45 35 41 52 58 58 58 45 50 45 56 64 65 59 54 50 46 51 48 50 47 42 35 26 26 21 20 19 20 20 23 25 26 36 39 47 44 43 27 33
22 21 17 15 19 13 27 25 24 27 24 46 46 57 69 62 55 54 54 76 71 61 57 53 47 47 38 39 45 42 37 29 24 26 25 24 20 19 16 22 23 24 27 36 40 39 35 37 37
31 29 17 16 29 10 11 15 11 15 22 27 14 47 55 44 43 46 65 77 69 60 55 54 59 51 50 43 38 33 32 32 30 29 31 23 20 17 22 23 23 29 28 28 29 31 33 40 35
34 19 30 29 20 12 11 13 10 9 12 10 13 27 37 51 61 69 73 69 70 68 67 61 58 49 45 42 42 46 41 48 40 36 28 21 20 16 15 14 16 18 17 21 29 25 25 32 34
29 29 33 36 13 8 9 6 14 7 9 8 12 33 36 72 80 85 86 81 75 74 69 65 54 51 48 42 45 46 40 40 38 26 19 13 14 14 12 10 11 13 18 20 20 25 31 36 44
29 24 21 13 12 19 22 14 11 4 11 5 18 51 59 67 87 81 72 67 61 54 56 56 57 50 44 39 37 36 37 35 27 20 18 21 21 19 17 15 17 20 23 27 30 34 37 42 46
28 30 12 8 13 17 16 10 14 11 10 10 34 50 58 69 74 73 62 50 43 35 34 33 32 38 36 35 33 30 29 26 21 20 19 16 14 15 16 19 23 29 34 39 43 48 51 54 55
40 28 11 13 9 8 9 10 9 15 13 4 59 61 85 79 62 57 53 48 45 41 36 36 36 40 34 33 31 27 24 20 18 13 11 13 14 17 23 28 33 37 40 42 45 49 52 54 58
40 35 21 12 6 8 2 8 8 5 11 33 56 63 67 71 80 73 64 58 52 43 32 27 26 29 26 25 23 19 14 11 8 8 11 15 19 24 29 33 36 40 43 45 46 48 50 53 57
45 14 15 1 15 9 3 5 7 11 14 21 36 53 56 73 88 80 68 57 44 36 30 24 19 19 18 13 8 5 1 2 6 11 16 20 25 30 33 36 40 41 39 38 38 40 42 45 47
8 38 3 14 10 12 9 8 7 15 13 5 14 41 79 79 80 76 64 46 32 29 31 30 25 18 12 8 7 7 8 11 15 19 21 25 29 31 33 38 36 36 37 36 40 41 43 42 45
11 7 17 15 7 6 11 6 11 14 28 15 21 39 47 70 82 69 59 47 41 39 34 29 25 17 11 4 7 12 16 20 23 24 25 27 28 34 36 34 38 39 39 40 44 43 41 45 47
Wind_Direction_850mb
269 257 216 169 76 70 249 258 220 265 318 295 270 152 110 74 167 198 150 155 168 174 171 168 173 170 169 167 163 160 155 146 141 140 149 151 150 149 151 152 152 149 145 144 145 145 143 139 141
255 194 184 158 111 164 256 235 254 281 267 283 133 108 65 102 139 140 150 172 171 174 175 173 175 174 173 171 167 164 159 153 146 141 147 153 151 151 154 157 158 155 153 149 150 152 149 147 149
213 199 172 150 161 201 235 218 261 279 290 316 300 100 90 136 135 150 162 154 168 177 179 179 177 178 176 174 171 168 164 161 154 147 150 157 155 156 158 161 166 166 164 160 158 160 157 155 153
161 173 226 141 210 249 238 267 241 311 308 311 284 86 95 163 159 178 173 164 169 180 180 180 180 181 179 177 174 173 172 169 165 158 157 161 161 162 163 165 166 169 169 166 164 166 164 160 160
173 180 198 216 242 256 259 263 286 275 262 276 279 167 127 169 162 152 172 183 184 180 181 181 182 183 182 179 177 177 179 177 174 167 162 165 170 171 170 171 171 173 177 175 173 173 172 168 166
190 177 115 223 244 265 287 280 294 273 272 269 262 147 155 164 168 156 173 175 178 190 186 183 183 185 185 184 183 181 183 184 183 177 172 172 178 183 184 181 179 179 186 186 184 183 182 178 174
163 112 215 204 236 274 256 288 285 282 278 248 224 145 142 153 161 151 174 179 173 200 195 186 184 184 185 187 187 187 189 191 193 192 188 186 186 190 195 198 197 195 192 195 198 196 195 192 187
216 119 210 213 227 267 270 306 304 280 269 187 175 151 165 167 167 167 175 184 191 189 189 189 188 187 189 189 188 191 192 195 200 203 204 202 204 203 201 203 205 208 211 201 203 210 211 211 203
217 185 212 222 198 236 284 355 299 307 238 67 34 136 170 165 161 170 177 183 188 182 188 194 194 194 193 192 193 191 192 196 203 210 214 215 215 216 216 213 211 213 215 218 217 220 222 225 223
191 210 221 203 210 250 233 314 306 302 309 54 92 130 148 153 167 174 183 186 193 187 183 190 194 195 193 195 195 194 196 200 207 214 222 229 231 232 229 226 225 225 222 223 225 230 235 238 241
215 231 209 265 241 262 274 279 283 323 310 241 222 197 145 166 189 172 169 200 196 201 187 190 190 192 193 194 194 197 200 206 216 226 229 232 237 242 244 233 234 239 245 249 252 249 246 249 254
255 245 229 250 260 261 222 279 267 243 247 301 303 262 226 193 187 208 250 178 198 209 207 179 188 194 181 190 196 200 210 220 222 226 232 231 236 241 233 221 218 247 264 286 292 282 283 284 283
227 251 254 257 255 258 266 261 241 251 264 265 277 262 257 259 219 200 231 203 190 200 203 175 182 184 168 202 220 208 208 217 220 226 233 232 243 249 229 221 197 195 236 284 306 315 313 293 293
235 235 245 253 256 256 251 264 230 242 238 257 260 252 253 259 251 250 243 193 187 194 195 194 198 208 195 207 219 214 215 221 212 192 196 193 183 198 218 229 231 247 264 277 286 283 297 299 289
237 263 261 240 239 241 253 258 244 245 231 229 249 255 246 248 241 243 257 234 211 204 195 193 195 210 198 212 219 223 217 195 191 187 196 205 204 196 206 230 237 239 248 250 259 256 257 258 256
211 236 248 254 228 249 204 254 236 253 252 234 236 243 248 245 245 236 246 240 203 195 185 186 195 205 216 212 215 209 202 207 215 222 215 223 219 219 221 235 239 242 244 252 257 256 263 260 255
235 245 227 266 201 218 202 252 242 248 243 252 247 246 247 248 239 236 236 230 197 185 180 173 183 203 206 208 202 204 203 205 215 216 224 241 244 240 260 277 263 261 251 256 260 265 259 260 256
224 210 203 200 239 199 240 253 256 261 238 236 245 252 237 230 221 230 226 197 181 180 180 168 174 184 190 188 192 202 197 203 219 232 246 250 234 228 255 266 275 268 259 264 268 281 275 267 278
234 227 240 225 244 229 243 249 241 252 228 241 246 239 229 218 228 224 201 179 175 179 172 161 157 161 186 195 201 212 217 224 222 217 238 247 232 240 253 260 250 259 266 274 270 279 298 277 281
225 223 240 278 259 180 251 249 231 236 236 217 236 209 210 217 223 222 187 177 182 175 169 161 161 160 174 181 188 200 193 208 209 232 227 225 249 269 264 258 257 260 266 269 269 275 282 276 285
218 220 221 230 276 248 259 263 244 235 203 188 217 216 209 215 195 177 174 180 174 161 164 167 168 176 177 183 188 199 201 204 213 215 216 229 237 237 262 259 256 262 269 271 267 270 276 273 276
225 204 227 240 251 245 162 257 259 216 169 157 128 165 149 150 152 154 157 164 169 172 183 182 185 188 190 190 195 209 211 210 204 210 209 227 244 247 239 238 237 246 259 271 270 261 257 260 266
225 225 231 236 217 217 242 96 269 237 183 177 154 113 133 148 152 147 148 153 165 175 182 185 188 190 197 208 205 207 195 193 188 188 198 190 193 197 205 231 249 249 256 260 248 249 254 259 257
215 232 232 232 204 237 237 152 268 197 209 196 97 132 136 131 140 138 138 144 146 150 168 180 185 189 191 187 179 184 192 192 191 191 184 177 185 194 212 231 253 268 270 268 266 264 267 268 265
213 220 236 248 216 227 215 163 214 219 246 197 134 137 130 138 139 140 138 136 134 140 149 161 169 161 168 180 181 190 197 200 201 196 195 195 206 226 248 257 261 265 266 269 269 270 270 270 270
224 216 178 201 172 188 217 202 228 198 178 175 137 144 140 145 138 131 129 128 126 126 129 132 136 136 144 151 154 158 166 179 193 210 238 264 284 292 292 293 294 294 290 285 282 280 278 275 271
226 217 195 127 349 109 251 333 35 13 143 123 134 139 138 140 138 133 129 125 124 120 115 118 126 124 130 133 139 148 160 183 213 248 274 288 298 300 304 309 309 306 304 301 297 293 289 284 279
211 200 180 315 147 157 254 189 200 33 359 146 141 137 137 135 134 132 128 124 123 122 120 121 119 117 113 112 110 112 143 284 307 317 319 319 318 321 322 322 317 314 313 311 305 302 299 292 289
181 208 195 123 153 148 158 248 180 128 78 336 116 143 140 140 138 137 129 120 126 137 134 124 117 109 91 62 25 354 340 335 333 333 330 325 326 324 325 326 326 321 318 316 318 317 314 305 305
297 300 181 178 174 132 145 240 101 135 98 53 78 137 143 137 140 135 122 132 140 141 141 136 129 126 106 54 347 331 326 324 327 326 326 328 329 330 327 321 325 320 318 315 313 307 306 301 301